User: anonymous
Location: Lac de la Montange Noire
(46.1952°N, 74.2701°W)
Time: 14:55:55
(UTC-04:00)
Language:

Iridium 42 - Orbit

View from above orbital plane
View from above orbital plane
View from above satellite
View from above satellite

Ground track
Ground track

The orbit data is extracted from the following two-line orbital elements,

1 25077U 97077A   14235.46226114  .00000128  00000-0  38753-4 0  9230
2 25077 086.3931 092.0111 0002103 101.3890 258.7542 14.34220496874721
Epoch (UTC): 23 August 2014 11:05:39
Eccentricity: 0.0002103
inclination: 86.3931°
perigee height: 776 km
apogee height: 779 km
right ascension of ascending node: 92.0111°
argument of perigee: 101.3890°
revolutions per day: 14.34220496
mean anomaly at epoch: 258.7542°
orbit number at epoch: 87472

The dashed part of the orbit path shows where the satellite is in the earth's shadow,  

DLR